FW5335 Weather Reports


time (UTC)temp
F
wind
direction
speed
knots
gust
knots
rain 1hr
in
rain 24hr
in
rain mn
in
humidity
%
barometer
mb
20260505001519 49 225 0.9 1.7 0.00 0.00 0.00 88 1015.5
20260505000524 50 0.0 1.7 0.00 0.00 0.00 88 1015.6
20260504235520 50 225 0.9 1.7 0.00 0.00 0.00 88 1015.5
20260504234520 50 225 1.7 4.3 0.00 0.00 0.00 87 1015.6
20260504233518 51 293 1.7 2.6 0.00 0.00 0.00 87 1015.6
20260504232520 51 0.0 0.0 0.00 0.00 0.00 86 1015.5
20260504231520 52 0 0.9 2.6 0.00 0.00 0.00 86 1015.5
20260504230540 52 0.0 1.7 0.00 0.00 0.00 85 1015.4
20260504225517 52 90 0.9 2.6 0.00 0.00 0.00 86 1015.5
20260504224518 53 90 0.9 1.7 0.00 0.00 0.00 85 1015.5
20260504223538 53 90 0.9 2.6 0.00 0.00 0.00 84 1015.7
20260504222519 54 90 0.9 2.6 0.00 0.00 0.00 84 1015.7
20260504221518 54 113 0.9 2.6 0.00 0.00 0.00 84 1015.8
20260504220518 54 135 0.9 2.6 0.00 0.00 0.00 83 1015.8
20260504215520 55 90 1.7 4.3 0.00 0.00 0.00 82 1015.8
20260504214519 55 90 1.7 2.6 0.00 0.00 0.00 82 1015.7
20260504213521 55 68 0.9 2.6 0.00 0.00 0.00 81 1015.7
20260504212518 56 68 0.9 1.7 0.00 0.00 0.00 80 1015.6
20260504211519 56 68 1.7 3.5 0.00 0.00 0.00 80 1015.4
20260504210518 56 68 1.7 3.5 0.00 0.00 0.00 80 1015.5
20260504205524 57 68 1.7 4.3 0.00 0.00 0.00 80 1015.5
20260504204539 57 90 1.7 3.5 0.00 0.00 0.00 80 1015.6
20260504203518 57 90 1.7 2.6 0.00 0.00 0.00 81 1015.6
20260504202519 57 68 1.7 3.5 0.00 0.00 0.00 80 1015.6
20260504201524 58 68 0.9 2.6 0.00 0.00 0.00 80 1015.7
20260504200519 58 68 1.7 3.5 0.00 0.00 0.00 80 1015.6
20260504195519 58 68 1.7 2.6 0.00 0.00 0.00 80 1015.4
20260504194523 58 90 1.7 3.5 0.00 0.00 0.00 79 1015.3
20260504193522 59 90 1.7 3.5 0.00 0.00 0.00 79 1015.2
20260504192520 59 113 0.9 3.5 0.00 0.00 0.00 78 1015.2
20260504191520 59 90 1.7 4.3 0.00 0.00 0.00 76 1015.2
20260504190519 59 90 2.6 4.3 0.00 0.00 0.00 76 1015.1
20260504185519 59 68 3.5 7.0 0.00 0.00 0.00 75 1014.9
20260504184519 59 68 2.6 7.0 0.00 0.00 0.00 75 1014.9
20260504183518 59 68 2.6 7.0 0.00 0.00 0.00 76 1014.7
20260504182519 60 68 2.6 4.3 0.00 0.00 0.00 75 1014.7
20260504181518 60 68 3.5 7.0 0.00 0.00 0.00 75 1014.4
20260504180519 60 90 2.6 6.1 0.00 0.00 0.00 75 1014.5
20260504175522 60 68 2.6 6.1 0.00 0.00 0.00 75 1014.7
20260504174520 60 68 3.5 7.8 0.00 0.00 0.00 74 1014.5
20260504173524 60 68 3.5 7.8 0.00 0.00 0.00 75 1014.5
20260504172519 60 90 2.6 6.1 0.00 0.00 0.00 74 1014.6
20260504171539 61 68 3.5 7.0 0.00 0.00 0.00 75 1014.5
20260504170518 61 68 3.5 9.6 0.00 0.00 0.00 74 1014.6
20260504150518 62 0 6.1 8.7 0.00 0.00 0.00 72 1014.5
20260504140519 66 23 7.0 11.3 0.00 0.00 0.00 65 1014.8
20260504130523 70 180 2.6 7.0 0.00 0.00 0.00 48 1014.9
20260504110538 64 135 3.5 7.8 0.00 0.00 0.00 65 1015.2
20260504100519 62 113 2.6 7.0 0.00 0.00 0.00 73 1015.1
20260504081518 58 248 0.9 2.6 0.00 0.00 0.00 79 1014.8
20260504080517 58 270 0.9 2.6 0.00 0.00 0.00 80 1014.7
20260504050518 50 0.0 0.0 0.00 0.00 0.00 91 1012.9
20260504045608 51 0.0 0.0 0.00 0.00 0.00 91 1012.9
20260504044518 51 0.0 0.0 0.00 0.00 0.00 90 1012.7
20260504043517 51 0.0 0.0 0.00 0.00 0.00 90 1012.7
20260504042528 51 0.0 0.0 0.00 0.00 0.00 90 1012.9
20260504041518 52 0.0 0.0 0.00 0.00 0.00 90 1012.9
20260504040518 52 0.0 0.0 0.00 0.00 0.00 90 1012.9
20260504035558 52 0.0 0.0 0.00 0.00 0.00 91 1012.9
20260504034518 52 0.0 0.0 0.00 0.00 0.00 91 1013.0
20260504033517 52 0.0 0.9 0.00 0.00 0.00 91 1012.8
20260504031541 52 0.0 0.0 0.00 0.00 0.00 91 1012.9
20260504030516 52 0.0 0.9 0.00 0.00 0.00 91 1013.0
20260504025518 52 203 0.9 2.6 0.00 0.00 0.00 91 1013.1
20260504024523 52 0.0 0.0 0.00 0.00 0.00 90 1013.0
20260504023518 52 0.0 0.0 0.00 0.00 0.00 91 1012.9
20260504022520 52 0.0 0.0 0.00 0.00 0.00 90 1012.9
20260504021519 52 0.0 0.0 0.00 0.00 0.00 90 1013.0
20260504020519 52 0.0 0.0 0.00 0.00 0.00 90 1013.0
20260504015519 52 0.0 0.0 0.00 0.00 0.00 90 1013.0
20260504014528 52 0.0 0.0 0.00 0.00 0.00 90 1012.9
20260504013523 52 0.0 0.0 0.00 0.00 0.00 90 1012.9
20260504012530 52 0.0 0.0 0.00 0.00 0.00 89 1012.8
20260504011519 52 0.0 0.0 0.00 0.00 0.00 89 1012.7
20260504010523 52 0.0 0.0 0.00 0.00 0.00 89 1012.7
20260504005518 53 203 0.9 1.7 0.00 0.00 0.00 89 1012.7
20260504004518 53 203 0.9 2.6 0.00 0.00 0.00 89 1012.7
20260504003524 53 203 0.9 1.7 0.00 0.00 0.00 89 1012.6
20260504002518 53 203 0.9 1.7 0.00 0.01 0.00 89 1012.7